Location: Lawrence Hall of Science
(37.8785°N, 122.2415°W)
Time: 04:15:36
(UTC-08:00)

Cosmos 1461 - Visible Passes

Search period start: 21 November 2017 00:00
Search period end: 01 December 2017 00:00
Orbit: 510 x 662 km, 65.0° (Epoch: 20 November)

Date Brightness Start Highest point End Pass type
(mag) Time Alt. Az. Time Alt. Az. Time Alt. Az.
21 Nov 5.8 17:59:01 10° WNW 18:02:46 24° WSW 18:06:32 10° SSW visible
22 Nov 6.7 06:23:58 10° SE 06:25:23 12° ESE 06:26:50 10° E visible
22 Nov 6.6 18:06:43 10° WNW 18:09:11 14° WSW 18:11:40 10° SW visible
27 Nov 5.9 05:16:36 10° SSE 05:19:16 17° ESE 05:22:01 10° ENE visible
28 Nov 4.9 05:22:09 10° S 05:25:41 30° ESE 05:29:23 10° NE visible
29 Nov 3.6 05:28:14 10° SSW 05:32:10 55° ESE 05:36:20 10° NE visible
30 Nov 2.7 05:34:41 10° SSW 05:38:45 82° WNW 05:43:03 10° NNE visible
